EJU34BQ EGKK-EDDB

Flight info

Callsign EJU34BQ
Flight time N/A
Altitude 37000
Route FRANE M604 GASBA M197 REDFA DCT TACHA DCT ROBEG L980 SAS T207 OGBER OGBER1R
Aircraft A320/M-SDE2E3FGHIJ1RWXYZ/LB1

Departure

Time 2026-05-06 15:24
Airport London Gatwick Airport (EGKK)

Arrival

Time N/A
Airport Berlin Brandenburg Airport (EDDB)
Time Latitude Longitude Altitude Speed Heading
2026-05-06 14:45 51.15568 -0.17007 211 ft 0 kts 168°
2026-05-06 15:04 51.15577 -0.17010 199 ft 3 kts 168°
2026-05-06 15:05 51.15597 -0.17017 219 ft 3 kts 167°
2026-05-06 15:05 51.15616 -0.17024 214 ft 3 kts 171°
2026-05-06 15:05 51.15634 -0.17024 210 ft 3 kts 208°
2026-05-06 15:05 51.15647 -0.17005 212 ft 3 kts 246°
2026-05-06 15:06 51.15652 -0.16985 211 ft 1 kts 257°
2026-05-06 15:06 51.15655 -0.16958 211 ft 3 kts 258°
2026-05-06 15:06 51.15658 -0.16938 211 ft 0 kts 258°
2026-05-06 15:06 51.15658 -0.16937 211 ft 0 kts 258°
2026-05-06 15:09 51.15657 -0.16951 213 ft 3 kts 258°
2026-05-06 15:10 51.15650 -0.16999 208 ft 6 kts 258°
2026-05-06 15:10 51.15642 -0.17072 205 ft 8 kts 259°
2026-05-06 15:10 51.15627 -0.17189 208 ft 15 kts 260°
2026-05-06 15:10 51.15595 -0.17376 215 ft 13 kts 251°
2026-05-06 15:11 51.15547 -0.17484 209 ft 12 kts 236°
2026-05-06 15:11 51.15528 -0.17601 211 ft 10 kts 258°
2026-05-06 15:11 51.15509 -0.17729 205 ft 15 kts 258°
2026-05-06 15:11 51.15487 -0.17892 212 ft 15 kts 257°
2026-05-06 15:12 51.15465 -0.18045 205 ft 14 kts 257°
2026-05-06 15:12 51.15447 -0.18179 214 ft 9 kts 258°
2026-05-06 15:12 51.15425 -0.18269 207 ft 8 kts 225°
2026-05-06 15:12 51.15377 -0.18276 211 ft 7 kts 170°
2026-05-06 15:13 51.15337 -0.18265 205 ft 5 kts 169°
2026-05-06 15:13 51.15294 -0.18251 215 ft 6 kts 168°
2026-05-06 15:13 51.15245 -0.18233 205 ft 9 kts 167°
2026-05-06 15:13 51.15196 -0.18256 213 ft 8 kts 232°
2026-05-06 15:14 51.15177 -0.18396 208 ft 14 kts 257°
2026-05-06 15:14 51.15157 -0.18538 209 ft 12 kts 257°
2026-05-06 15:14 51.15137 -0.18685 206 ft 17 kts 257°
2026-05-06 15:14 51.15110 -0.18879 212 ft 19 kts 258°
2026-05-06 15:15 51.15083 -0.19084 215 ft 19 kts 257°
2026-05-06 15:15 51.15053 -0.19302 209 ft 21 kts 258°
2026-05-06 15:15 51.15021 -0.19535 207 ft 22 kts 257°
2026-05-06 15:15 51.14986 -0.19784 212 ft 24 kts 257°
2026-05-06 15:16 51.14953 -0.20023 212 ft 20 kts 258°
2026-05-06 15:16 51.14922 -0.20248 205 ft 22 kts 258°
2026-05-06 15:16 51.14890 -0.20477 204 ft 17 kts 256°
2026-05-06 15:16 51.14865 -0.20646 210 ft 15 kts 257°
2026-05-06 15:17 51.14847 -0.20793 205 ft 13 kts 259°
2026-05-06 15:17 51.14831 -0.20920 212 ft 11 kts 259°
2026-05-06 15:17 51.14816 -0.21029 207 ft 9 kts 257°
2026-05-06 15:17 51.14802 -0.21123 205 ft 8 kts 254°
2026-05-06 15:18 51.14780 -0.21206 210 ft 8 kts 253°
2026-05-06 15:18 51.14768 -0.21299 213 ft 11 kts 257°
2026-05-06 15:18 51.14718 -0.21405 211 ft 10 kts 186°
2026-05-06 15:18 51.14662 -0.21362 217 ft 8 kts 136°
2026-05-06 15:19 51.14625 -0.21332 210 ft 0 kts 171°
2026-05-06 15:21 51.14618 -0.21331 208 ft 0 kts 171°
2026-05-06 15:23 51.14572 -0.21309 208 ft 11 kts 155°
2026-05-06 15:23 51.14526 -0.21233 216 ft 9 kts 113°
2026-05-06 15:23 51.14524 -0.21154 214 ft 0 kts 82°
2026-05-06 15:23 51.14524 -0.21150 213 ft 3 kts 82°
2026-05-06 15:24 51.14555 -0.20918 212 ft 52 kts 77°
2026-05-06 15:24 51.14686 -0.19980 215 ft 118 kts 77°
2026-05-06 15:24 51.14903 -0.18440 287 ft 157 kts 72°
2026-05-06 15:24 51.15146 -0.16800 1063 ft 153 kts 72°
2026-05-06 15:25 51.15384 -0.15076 1605 ft 169 kts 72°
2026-05-06 15:25 51.15652 -0.13123 1992 ft 191 kts 74°
2026-05-06 15:25 51.15940 -0.11028 2291 ft 212 kts 76°
2026-05-06 15:25 51.16271 -0.08628 2720 ft 231 kts 74°
2026-05-06 15:26 51.16629 -0.06017 3281 ft 251 kts 75°
2026-05-06 15:26 51.16910 -0.03216 4086 ft 260 kts 86°
2026-05-06 15:26 51.16856 -0.00305 5017 ft 265 kts 89°
2026-05-06 15:26 51.16851 0.02614 5911 ft 268 kts 79°
2026-05-06 15:27 51.17504 0.05372 6773 ft 268 kts 52°
2026-05-06 15:27 51.18712 0.07325 7560 ft 269 kts 38°
2026-05-06 15:27 51.20137 0.09170 8430 ft 272 kts 37°
2026-05-06 15:27 51.21121 0.10421 8989 ft 275 kts 36°
2026-05-06 15:28 51.23137 0.12975 10076 ft 282 kts 36°
2026-05-06 15:28 51.24731 0.15004 10420 ft 305 kts 37°
2026-05-06 15:28 51.26454 0.17181 10825 ft 322 kts 36°
2026-05-06 15:28 51.28227 0.19418 11514 ft 328 kts 36°
2026-05-06 15:29 51.29892 0.21550 12205 ft 333 kts 36°
2026-05-06 15:29 51.31727 0.23870 12809 ft 339 kts 37°
2026-05-06 15:29 51.33583 0.26232 13281 ft 342 kts 36°
2026-05-06 15:29 51.35462 0.28624 14000 ft 346 kts 36°
2026-05-06 15:30 51.37333 0.31013 14629 ft 350 kts 36°
2026-05-06 15:30 51.39252 0.33472 15262 ft 354 kts 37°
2026-05-06 15:30 51.41190 0.35935 15891 ft 358 kts 36°
2026-05-06 15:30 51.43146 0.38433 16519 ft 362 kts 37°
2026-05-06 15:31 51.45065 0.40870 17133 ft 365 kts 37°
2026-05-06 15:31 51.47066 0.43417 17749 ft 369 kts 37°
2026-05-06 15:31 51.49065 0.45955 18356 ft 373 kts 36°
2026-05-06 15:32 51.53193 0.51185 19424 ft 380 kts 36°
2026-05-06 15:32 51.55263 0.53795 19952 ft 384 kts 36°
2026-05-06 15:32 51.56685 0.55592 20315 ft 386 kts 36°
2026-05-06 15:32 51.59487 0.59128 21016 ft 390 kts 36°
2026-05-06 15:33 51.61641 0.61858 21533 ft 393 kts 37°
2026-05-06 15:33 51.63803 0.64591 22047 ft 396 kts 36°
2026-05-06 15:33 51.65984 0.67354 22545 ft 400 kts 37°
2026-05-06 15:33 51.68179 0.70127 23053 ft 403 kts 36°
2026-05-06 15:34 51.69649 0.71985 23381 ft 405 kts 36°
2026-05-06 15:34 51.71874 0.74796 23821 ft 408 kts 36°
2026-05-06 15:34 51.74847 0.78556 24358 ft 411 kts 36°
2026-05-06 15:34 51.77051 0.81536 24760 ft 415 kts 45°
2026-05-06 15:35 51.78758 0.85309 25138 ft 419 kts 62°
2026-05-06 15:35 51.79500 0.88189 25400 ft 421 kts 71°
2026-05-06 15:35 51.80444 0.92683 25785 ft 423 kts 71°
2026-05-06 15:35 51.81383 0.97227 26136 ft 427 kts 71°
2026-05-06 15:36 51.82314 1.01785 26551 ft 428 kts 71°
2026-05-06 15:36 51.83250 1.06387 26953 ft 430 kts 71°
2026-05-06 15:36 51.84189 1.11004 27333 ft 432 kts 71°
2026-05-06 15:36 51.85124 1.15576 27705 ft 435 kts 71°
2026-05-06 15:37 51.86081 1.20238 28086 ft 437 kts 71°
2026-05-06 15:37 51.87039 1.24915 28440 ft 439 kts 71°
2026-05-06 15:37 51.88001 1.29638 28811 ft 441 kts 71°
2026-05-06 15:37 51.88959 1.34369 29173 ft 443 kts 72°
2026-05-06 15:38 51.89919 1.39132 29524 ft 446 kts 72°
2026-05-06 15:38 51.90883 1.43915 29882 ft 448 kts 72°
2026-05-06 15:38 51.91843 1.48672 30176 ft 450 kts 72°
2026-05-06 15:38 51.92818 1.53505 30431 ft 453 kts 72°
2026-05-06 15:39 51.93797 1.58381 30704 ft 455 kts 72°
2026-05-06 15:39 51.94775 1.63273 30977 ft 456 kts 72°
2026-05-06 15:39 51.95755 1.68185 31249 ft 458 kts 72°
2026-05-06 15:39 51.96732 1.73100 31551 ft 458 kts 72°
2026-05-06 15:40 51.97697 1.77973 31936 ft 457 kts 72°
2026-05-06 15:40 51.98666 1.82878 32320 ft 456 kts 72°
2026-05-06 15:40 51.99635 1.87786 32700 ft 455 kts 72°
2026-05-06 15:40 52.00598 1.92678 33071 ft 454 kts 72°
2026-05-06 15:41 52.01563 1.97578 33443 ft 453 kts 72°
2026-05-06 15:41 52.02508 2.02388 33777 ft 453 kts 72°
2026-05-06 15:41 52.03461 2.07262 34117 ft 452 kts 72°
2026-05-06 15:41 52.04409 2.12146 34397 ft 453 kts 72°
2026-05-06 15:42 52.05356 2.17038 34633 ft 453 kts 72°
2026-05-06 15:42 52.06301 2.21926 34888 ft 454 kts 72°
2026-05-06 15:42 52.07249 2.26837 35109 ft 454 kts 72°
2026-05-06 15:42 52.08199 2.31759 35359 ft 454 kts 72°
2026-05-06 15:43 52.09139 2.36636 35566 ft 455 kts 72°
2026-05-06 15:43 52.10083 2.41554 35806 ft 455 kts 72°
2026-05-06 15:43 52.11028 2.46493 36018 ft 456 kts 73°
2026-05-06 15:43 52.11956 2.51364 36218 ft 457 kts 73°
2026-05-06 15:44 52.12902 2.56332 36402 ft 458 kts 73°
2026-05-06 15:44 52.13833 2.61220 36616 ft 458 kts 73°
2026-05-06 15:44 52.14783 2.66197 36805 ft 458 kts 73°
2026-05-06 15:44 52.15727 2.71163 36922 ft 458 kts 73°
2026-05-06 15:45 52.17598 2.81067 36952 ft 456 kts 73°
2026-05-06 15:45 52.19442 2.90897 36952 ft 455 kts 73°
2026-05-06 15:46 52.21295 3.00800 36948 ft 456 kts 73°
2026-05-06 15:46 52.23142 3.10701 36947 ft 456 kts 73°
2026-05-06 15:47 52.24971 3.20637 36955 ft 457 kts 76°
2026-05-06 15:47 52.25761 3.30860 36945 ft 454 kts 89°
2026-05-06 15:48 52.25962 3.41163 36931 ft 455 kts 89°
2026-05-06 15:48 52.26173 3.51496 36926 ft 456 kts 89°
2026-05-06 15:49 52.26370 3.61756 36924 ft 456 kts 90°
2026-05-06 15:49 52.26560 3.72112 36927 ft 456 kts 89°
2026-05-06 15:50 52.26738 3.82523 36927 ft 456 kts 89°
2026-05-06 15:50 52.26907 3.92892 36925 ft 456 kts 90°
2026-05-06 15:51 52.27072 4.03168 36924 ft 456 kts 90°
2026-05-06 15:51 52.27222 4.13537 36930 ft 455 kts 90°
2026-05-06 15:52 52.27360 4.23798 36928 ft 454 kts 90°
2026-05-06 15:52 52.27491 4.34124 36927 ft 454 kts 90°
2026-05-06 15:53 52.27616 4.44441 36920 ft 454 kts 90°
2026-05-06 15:53 52.27732 4.54706 36918 ft 454 kts 90°
2026-05-06 15:54 52.27841 4.65020 36911 ft 454 kts 90°
2026-05-06 15:54 52.27934 4.75308 36927 ft 453 kts 91°
2026-05-06 15:55 52.28021 4.85605 36926 ft 453 kts 91°
2026-05-06 15:55 52.28101 4.95844 36922 ft 453 kts 91°
2026-05-06 15:56 52.28171 5.06134 36923 ft 453 kts 91°
2026-05-06 15:56 52.28233 5.16402 36918 ft 452 kts 91°
2026-05-06 15:57 52.28284 5.26658 36919 ft 452 kts 91°
2026-05-06 15:57 52.28329 5.36922 36917 ft 452 kts 91°
2026-05-06 15:58 52.28356 5.46820 36910 ft 452 kts 91°
2026-05-06 15:58 52.28386 5.57096 36908 ft 452 kts 91°
2026-05-06 15:59 52.28406 5.67363 36889 ft 452 kts 91°
2026-05-06 15:59 52.28410 5.77622 36892 ft 452 kts 91°
2026-05-06 16:00 52.28410 5.87901 36890 ft 452 kts 91°
2026-05-06 16:00 52.28406 5.98178 36882 ft 452 kts 92°
2026-05-06 16:01 52.28394 6.08435 36884 ft 453 kts 92°
2026-05-06 16:01 52.28364 6.18734 36883 ft 453 kts 92°
2026-05-06 16:02 52.28321 6.29040 36885 ft 453 kts 92°
2026-05-06 16:02 52.28273 6.39310 36884 ft 453 kts 92°
2026-05-06 16:03 52.28215 6.49577 36878 ft 453 kts 92°
2026-05-06 16:03 52.28154 6.59884 36880 ft 453 kts 92°
2026-05-06 16:04 52.28088 6.70114 36883 ft 453 kts 92°
2026-05-06 16:04 52.28006 6.80422 36885 ft 453 kts 93°
2026-05-06 16:05 52.27908 6.90725 36888 ft 453 kts 93°
2026-05-06 16:05 52.27803 7.00975 36872 ft 453 kts 93°
2026-05-06 16:06 52.27698 7.11322 36877 ft 453 kts 93°
2026-05-06 16:06 52.27581 7.21559 36875 ft 453 kts 93°
2026-05-06 16:07 52.27455 7.31863 36877 ft 453 kts 93°
2026-05-06 16:07 52.27319 7.42185 36874 ft 453 kts 93°
2026-05-06 16:08 52.27177 7.52407 36877 ft 453 kts 94°
2026-05-06 16:08 52.27022 7.62720 36881 ft 454 kts 94°
2026-05-06 16:09 52.26855 7.73031 36883 ft 454 kts 94°
2026-05-06 16:09 52.26684 7.83283 36891 ft 454 kts 94°
2026-05-06 16:10 52.26504 7.93592 36864 ft 454 kts 94°
2026-05-06 16:10 52.26320 8.03867 36863 ft 454 kts 94°
2026-05-06 16:11 52.26128 8.14180 36855 ft 454 kts 94°
2026-05-06 16:11 52.25915 8.24515 36852 ft 454 kts 94°
2026-05-06 16:12 52.25697 8.34781 36846 ft 454 kts 94°
2026-05-06 16:12 52.25473 8.45108 36835 ft 454 kts 95°
2026-05-06 16:13 52.25236 8.55387 36838 ft 456 kts 95°
2026-05-06 16:13 52.24990 8.65732 36836 ft 456 kts 95°
2026-05-06 16:14 52.24738 8.76069 36834 ft 455 kts 95°
2026-05-06 16:14 52.24479 8.86398 36831 ft 455 kts 95°
2026-05-06 16:15 52.24211 8.96736 36813 ft 455 kts 95°
2026-05-06 16:15 52.23931 9.07008 36817 ft 456 kts 95°
2026-05-06 16:16 52.23639 9.17387 36822 ft 457 kts 95°
2026-05-06 16:16 52.23392 9.27684 36823 ft 458 kts 91°
2026-05-06 16:17 52.23694 9.38089 36821 ft 459 kts 90°
2026-05-06 16:17 52.23994 9.48460 36824 ft 459 kts 90°
2026-05-06 16:18 52.24293 9.58864 36826 ft 459 kts 90°
2026-05-06 16:18 52.24584 9.69314 36828 ft 459 kts 90°
2026-05-06 16:19 52.24859 9.79698 36830 ft 460 kts 90°
2026-05-06 16:19 52.25659 9.90055 36835 ft 463 kts 76°
2026-05-06 16:20 52.27966 9.99839 36811 ft 465 kts 69°
2026-05-06 16:20 52.30420 10.09631 36810 ft 465 kts 69°
2026-05-06 16:21 52.32453 10.17795 36806 ft 465 kts 69°
2026-05-06 16:21 52.35231 10.28986 36822 ft 466 kts 69°
2026-05-06 16:22 52.36041 10.32250 36654 ft 467 kts 69°
2026-05-06 16:22 52.37259 10.37173 36388 ft 465 kts 69°
2026-05-06 16:22 52.38469 10.42082 35846 ft 463 kts 69°
2026-05-06 16:22 52.39672 10.46976 35295 ft 461 kts 70°
2026-05-06 16:23 52.40865 10.51834 34756 ft 459 kts 70°
2026-05-06 16:23 52.42031 10.56602 34224 ft 457 kts 70°
2026-05-06 16:23 52.43197 10.61417 33695 ft 455 kts 70°
2026-05-06 16:23 52.44352 10.66244 33137 ft 452 kts 70°
2026-05-06 16:24 52.45489 10.71012 32639 ft 448 kts 71°
2026-05-06 16:24 52.46603 10.75707 32133 ft 444 kts 71°
2026-05-06 16:24 52.47717 10.80410 31631 ft 441 kts 71°
2026-05-06 16:24 52.48814 10.85042 31146 ft 437 kts 71°
2026-05-06 16:25 52.49915 10.89684 30657 ft 434 kts 71°
2026-05-06 16:25 52.51004 10.94285 30182 ft 430 kts 71°
2026-05-06 16:25 52.52085 10.98861 29690 ft 427 kts 71°
2026-05-06 16:25 52.53149 11.03376 29194 ft 420 kts 71°
2026-05-06 16:26 52.54141 11.07861 28775 ft 412 kts 78°
2026-05-06 16:26 52.54708 11.12408 28353 ft 402 kts 88°
2026-05-06 16:26 52.54862 11.16902 27939 ft 395 kts 92°
2026-05-06 16:26 52.54956 11.21380 27527 ft 390 kts 92°
2026-05-06 16:27 52.55057 11.25819 27100 ft 386 kts 92°
2026-05-06 16:27 52.55161 11.30215 26700 ft 383 kts 92°
2026-05-06 16:27 52.55265 11.34564 26270 ft 379 kts 92°
2026-05-06 16:27 52.55365 11.38890 25848 ft 376 kts 92°
2026-05-06 16:28 52.55458 11.43173 25414 ft 374 kts 92°
2026-05-06 16:28 52.55546 11.47381 24984 ft 372 kts 92°
2026-05-06 16:28 52.55633 11.51648 24542 ft 370 kts 92°
2026-05-06 16:28 52.55719 11.55877 24066 ft 369 kts 92°
2026-05-06 16:29 52.55800 11.60030 23635 ft 368 kts 92°
2026-05-06 16:29 52.55881 11.64248 23148 ft 368 kts 91°
2026-05-06 16:29 52.55960 11.68284 22701 ft 367 kts 91°
2026-05-06 16:29 52.56044 11.72472 22260 ft 364 kts 91°
2026-05-06 16:30 52.56127 11.76620 21813 ft 362 kts 91°
2026-05-06 16:30 52.56179 11.79356 21534 ft 361 kts 91°
2026-05-06 16:30 52.56204 11.80758 21393 ft 360 kts 91°